When you browse on this site, cookies collect data to enhance your experience and personalize the content and advertising you see.
Visit our Privacy Policy to learn more. By continuing to use the site, you agree to this use of cookies and data.
  • In Schweiz
  • Länderverzeichnis
  • Für 7 Tage
  • Wassertemperatur
  • Wetterkarte
  • Widgets
  • user-avatar
    Anmelden

    Stündliche Wetter Herceg Novi

    Heute, 21 Februar, Freitag

    Zeit Temperatur Niederschläge Wind Luftdruck Luftfeuchtigkeit
    00:00 +4°C° 0 mm 4 m/S 765 mmHg 69%
    01:00 +3°C° 0 mm 4 m/S 765 mmHg 69%
    02:00 +3°C° 0 mm 3 m/S 765 mmHg 69%
    03:00 +3°C° 0 mm 3 m/S 765 mmHg 68%
    04:00 +3°C° 0 mm 3 m/S 765 mmHg 68%
    05:00 +3°C° 0 mm 3 m/S 765 mmHg 67%
    06:00 +3°C° 0 mm 3 m/S 765 mmHg 65%
    07:00 +4°C° 0 mm 2 m/S 765 mmHg 64%
    14:00 +14°C° 0 mm 2 m/S 765 mmHg 41%
    15:00 +13°C° 0 mm 2 m/S 765 mmHg 48%
    16:00 +13°C° 0 mm 2 m/S 765 mmHg 55%
    17:00 +11°C° 0 mm 3 m/S 766 mmHg 59%
    18:00 +9°C° 0 mm 3 m/S 766 mmHg 63%
    19:00 +8°C° 0 mm 3 m/S 767 mmHg 67%
    20:00 +7°C° 0 mm 3 m/S 767 mmHg 68%
    21:00 +7°C° 0 mm 3 m/S 767 mmHg 70%
    22:00 +5°C° 0 mm 3 m/S 767 mmHg 71%
    23:00 +5°C° 0 mm 3 m/S 768 mmHg 67%

    Morgen, 22 Februar, Samstag

    Zeit Temperatur Niederschläge Wind Luftdruck Luftfeuchtigkeit
    00:00 +4°C° 0 mm 4 m/S 768 mmHg 63%
    01:00 +3°C° 0 mm 5 m/S 768 mmHg 59%
    02:00 +3°C° 0 mm 5 m/S 768 mmHg 62%
    03:00 +2°C° 0 mm 5 m/S 768 mmHg 64%
    04:00 +2°C° 0 mm 5 m/S 768 mmHg 66%
    05:00 +2°C° 0 mm 5 m/S 769 mmHg 67%
    06:00 +2°C° 0 mm 5 m/S 769 mmHg 68%
    07:00 +2°C° 0 mm 5 m/S 769 mmHg 68%
    08:00 +4°C° 0 mm 4 m/S 770 mmHg 60%
    09:00 +6°C° 0 mm 4 m/S 770 mmHg 51%
    10:00 +8°C° 0 mm 4 m/S 770 mmHg 43%
    11:00 +10°C° 0 mm 3 m/S 770 mmHg 40%
    12:00 +11°C° 0 mm 3 m/S 770 mmHg 38%
    13:00 +13°C° 0 mm 2 m/S 770 mmHg 36%
    14:00 +12°C° 0 mm 2 m/S 770 mmHg 39%
    15:00 +12°C° 0 mm 2 m/S 770 mmHg 42%
    16:00 +12°C° 0 mm 2 m/S 769 mmHg 45%
    17:00 +9°C° 0 mm 2 m/S 770 mmHg 51%
    18:00 +8°C° 0 mm 2 m/S 770 mmHg 57%
    19:00 +6°C° 0 mm 2 m/S 770 mmHg 63%
    20:00 +6°C° 0 mm 2 m/S 770 mmHg 64%
    21:00 +6°C° 0 mm 2 m/S 771 mmHg 64%
    22:00 +6°C° 0 mm 2 m/S 771 mmHg 65%
    23:00 +6°C° 0 mm 2 m/S 771 mmHg 62%

    übermorgen, 23 Februar, Sonntag

    Zeit Temperatur Niederschläge Wind Luftdruck Luftfeuchtigkeit
    00:00 +6°C° 0 mm 2 m/S 771 mmHg 58%
    01:00 +7°C° 0 mm 1 m/S 770 mmHg 55%
    02:00 +7°C° 0 mm 1 m/S 770 mmHg 53%
    03:00 +7°C° 0 mm 1 m/S 769 mmHg 51%
    04:00 +7°C° 0 mm 1 m/S 769 mmHg 49%
    05:00 +8°C° 0 mm 1 m/S 769 mmHg 50%
    06:00 +8°C° 0 mm 1 m/S 769 mmHg 50%
    07:00 +8°C° 0 mm 1 m/S 768 mmHg 51%
    08:00 +10°C° 0 mm 1 m/S 768 mmHg 48%
    09:00 +12°C° 0 mm 1 m/S 768 mmHg 45%
    10:00 +14°C° 0 mm 1 m/S 768 mmHg 42%
    11:00 +15°C° 0 mm 1 m/S 767 mmHg 44%
    12:00 +15°C° 0 mm 1 m/S 767 mmHg 46%
    13:00 +16°C° 0 mm 1 m/S 766 mmHg 48%
    14:00 +15°C° 0 mm 1 m/S 766 mmHg 53%
    15:00 +15°C° 0 mm 1 m/S 766 mmHg 59%
    16:00 +14°C° 0 mm 1 m/S 765 mmHg 64%
    17:00 +13°C° 0 mm 1 m/S 765 mmHg 69%
    18:00 +11°C° 0 mm 1 m/S 766 mmHg 73%
    19:00 +9°C° 0 mm 0 m/S 766 mmHg 77%
    20:00 +9°C° 0 mm 0 m/S 766 mmHg 76%
    21:00 +9°C° 0 mm 0 m/S 766 mmHg 76%
    22:00 +8°C° 0 mm 0 m/S 766 mmHg 75%
    23:00 +8°C° 0 mm 0 m/S 766 mmHg 75%

    24 Februar, Montag

    Zeit Temperatur Niederschläge Wind Luftdruck Luftfeuchtigkeit
    00:00 +8°C° 0 mm 0 m/S 765 mmHg 76%
    01:00 +9°C° 0 mm 1 m/S 765 mmHg 76%
    02:00 +9°C° 0 mm 1 m/S 765 mmHg 78%
    03:00 +8°C° 0 mm 1 m/S 764 mmHg 80%
    04:00 +8°C° 0 mm 1 m/S 764 mmHg 81%
    05:00 +8°C° 0 mm 1 m/S 764 mmHg 83%
    06:00 +8°C° 0 mm 1 m/S 764 mmHg 84%
    07:00 +9°C° 0 mm 1 m/S 764 mmHg 85%
    08:00 +10°C° 0 mm 1 m/S 764 mmHg 80%
    09:00 +12°C° 0 mm 1 m/S 764 mmHg 74%
    10:00 +14°C° 0 mm 1 m/S 764 mmHg 69%
    11:00 +15°C° 0 mm 2 m/S 764 mmHg 65%
    12:00 +17°C° 0 mm 2 m/S 764 mmHg 61%
    13:00 +18°C° 0 mm 3 m/S 764 mmHg 57%
    14:00 +17°C° 0 mm 3 m/S 764 mmHg 57%
    15:00 +17°C° 0 mm 3 m/S 764 mmHg 58%
    16:00 +16°C° 0 mm 2 m/S 764 mmHg 58%
    17:00 +14°C° 0 mm 2 m/S 765 mmHg 61%
    18:00 +13°C° 0 mm 2 m/S 765 mmHg 63%
    19:00 +10°C° 0 mm 2 m/S 766 mmHg 65%
    20:00 +9°C° 0 mm 3 m/S 766 mmHg 63%
    21:00 +9°C° 0 mm 3 m/S 766 mmHg 60%
    22:00 +8°C° 0 mm 3 m/S 766 mmHg 58%
    23:00 +8°C° 0 mm 3 m/S 766 mmHg 55%

    25 Februar, Dienstag

    Zeit Temperatur Niederschläge Wind Luftdruck Luftfeuchtigkeit
    00:00 +7°C° 0 mm 3 m/S 766 mmHg 52%
    01:00 +7°C° 0 mm 3 m/S 766 mmHg 49%
    02:00 +7°C° 0 mm 3 m/S 765 mmHg 46%
    03:00 +7°C° 0 mm 3 m/S 765 mmHg 43%
    04:00 +7°C° 0 mm 2 m/S 764 mmHg 40%
    05:00 +7°C° 0 mm 2 m/S 764 mmHg 38%
    06:00 +8°C° 0 mm 2 m/S 764 mmHg 37%
    07:00 +8°C° 0 mm 2 m/S 764 mmHg 36%
    08:00 +10°C° 0 mm 2 m/S 763 mmHg 35%
    09:00 +14°C° 0 mm 2 m/S 763 mmHg 34%
    10:00 +16°C° 0 mm 2 m/S 763 mmHg 34%
    11:00 +16°C° 0 mm 3 m/S 762 mmHg 36%
    12:00 +16°C° 0 mm 3 m/S 762 mmHg 38%
    13:00 +17°C° 0 mm 4 m/S 761 mmHg 40%
    14:00 +15°C° 0 mm 5 m/S 761 mmHg 48%
    15:00 +14°C° 0 mm 5 m/S 761 mmHg 56%
    16:00 +14°C° 0 mm 6 m/S 760 mmHg 64%
    17:00 +13°C° 0.1 mm 6 m/S 760 mmHg 71%
    18:00 +11°C° 0.1 mm 6 m/S 760 mmHg 79%
    19:00 +11°C° 0.1 mm 6 m/S 760 mmHg 86%
    20:00 +11°C° 0.3 mm 6 m/S 760 mmHg 89%
    21:00 +11°C° 0.3 mm 6 m/S 760 mmHg 92%
    22:00 +11°C° 0.3 mm 7 m/S 760 mmHg 95%
    23:00 +11°C° 0.6 mm 7 m/S 759 mmHg 96%

    26 Februar, Mittwoch

    Zeit Temperatur Niederschläge Wind Luftdruck Luftfeuchtigkeit
    00:00 +11°C° 0.6 mm 7 m/S 758 mmHg 97%
    01:00 +12°C° 0.6 mm 7 m/S 758 mmHg 98%
    02:00 +11°C° 0.6 mm 7 m/S 757 mmHg 98%
    03:00 +11°C° 0.6 mm 7 m/S 757 mmHg 97%
    04:00 +11°C° 0.6 mm 7 m/S 756 mmHg 97%
    05:00 +11°C° 0.7 mm 7 m/S 756 mmHg 97%
    06:00 +11°C° 0.7 mm 6 m/S 755 mmHg 97%
    07:00 +11°C° 0.7 mm 6 m/S 755 mmHg 97%
    08:00 +12°C° 0.7 mm 5 m/S 755 mmHg 96%
    09:00 +12°C° 0.7 mm 5 m/S 755 mmHg 94%
    10:00 +13°C° 0.7 mm 5 m/S 754 mmHg 93%
    11:00 +13°C° 0.4 mm 4 m/S 754 mmHg 91%
    12:00 +13°C° 0.4 mm 3 m/S 754 mmHg 90%
    13:00 +13°C° 0.4 mm 3 m/S 754 mmHg 89%
    14:00 +14°C° 0.2 mm 2 m/S 754 mmHg 87%
    15:00 +14°C° 0.2 mm 2 m/S 754 mmHg 85%
    16:00 +14°C° 0.2 mm 1 m/S 754 mmHg 83%
    17:00 +13°C° 0.1 mm 1 m/S 755 mmHg 86%
    18:00 +12°C° 0.1 mm 1 m/S 755 mmHg 90%
    19:00 +10°C° 0.1 mm 2 m/S 755 mmHg 94%
    20:00 +10°C° 0.1 mm 2 m/S 755 mmHg 93%
    21:00 +10°C° 0.1 mm 2 m/S 755 mmHg 93%
    22:00 +10°C° 0.1 mm 2 m/S 756 mmHg 92%
    23:00 +10°C° 0.1 mm 2 m/S 755 mmHg 91%
    Mehr zeigen